Dewpoint
46 46 46 47 47 47 47 48 50 49 49 49 49 50 51 54 56 57 58 59 59 59
45 46 46 47 48 48 48 47 45 46 47 47 47 48 49 52 53 55 55 54 53 52
45 46 47 47 47 47 45 44 44 44 45 45 46 47 49 50 51 51 51 52 51 50
44 44 45 45 45 45 43 42 42 42 43 43 43 44 47 48 47 47 47 47 47 46
43 43 43 43 43 42 42 41 41 40 40 41 41 42 43 44 45 45 44 44 45 44
41 42 41 41 41 41 41 41 40 39 39 39 39 40 41 41 41 41 41 41 40 40
40 40 40 40 40 40 40 40 40 39 38 38 38 39 40 40 40 40 40 39 39 38
39 40 40 40 40 39 39 39 39 38 38 38 38 38 39 39 39 39 38 37 37 39
39 39 40 39 39 39 38 38 38 38 37 37 37 39 39 38 38 37 36 35 35 35
39 39 39 39 39 38 38 38 38 37 37 37 36 39 38 37 37 36 36 35 36 32
39 38 38 39 38 38 38 38 38 38 38 37 36 36 35 34 35 33 33 33 33 34
38 38 38 38 38 37 37 36 36 37 37 37 36 33 30 31 33 31 30 30 28 27
38 38 38 38 36 36 36 35 35 34 35 34 36 30 28 28 24 24 20 22 25 27
38 38 38 37 36 36 34 34 34 34 33 33 32 29 29 25 18 17 17 18 20 22
Lifted_Index
6 6 6 6 6 6 6 6 7 8 8 8 9 9 8 7 6 5 5 4 4 3
6 6 6 7 7 7 7 7 7 8 8 8 9 9 9 8 7 6 6 5 4 4
6 6 6 7 7 7 7 7 7 8 8 9 9 10 9 8 8 7 7 6 6 5
6 6 6 6 6 7 7 7 8 8 9 9 10 10 9 9 9 9 8 8 7 7
5 5 6 6 6 7 7 8 8 9 9 9 9 9 9 9 9 9 9 9 9 9
5 5 5 5 6 7 7 8 8 9 9 9 9 9 9 9 9 9 9 10 10 10
4 4 5 5 6 7 8 8 8 8 9 9 9 9 9 9 9 9 9 10 10 10
4 4 5 6 7 7 8 8 8 8 8 9 9 9 9 9 9 9 9 10 10 10
4 4 5 6 7 7 8 8 8 8 8 8 9 9 9 9 9 9 10 10 11 12
4 4 5 6 6 7 8 9 8 8 8 8 9 9 10 10 10 11 12 13 14 15
4 5 5 6 6 7 9 9 9 9 8 8 9 10 11 12 12 13 15 16 17 17
4 5 5 6 6 8 9 9 9 9 9 9 10 12 13 15 15 16 16 17 17 18
5 5 6 6 7 8 9 9 9 9 9 10 12 15 16 17 17 16 16 16 17 17
6 6 6 7 8 9 9 9 9 9 10 12 14 16 18 18 17 16 15 15 16 17